| time (UTC) | temp F | wind direction | speed MPH | gust MPH | rain 1hr in | rain 24hr in | rain mn in | humidity % | barometer mb |
| 20260504141003 | 67 | 142 | 4.0 | 4.0 | 0.10 | 0.30 | 0.20 | 74 | 1020.0 |
| 20260504081003 | 49 | 123 | 7.0 | 7.0 | 0.10 | 0.30 | 0.20 | 84 | 1018.0 |
| 20260504050003 | 52 | 134 | 8.0 | 8.0 | 0.10 | 0.30 | 0.20 | 81 | 1020.0 |
| 20260504045003 | 53 | 134 | 8.0 | 8.0 | 0.10 | 0.30 | 0.20 | 81 | 1020.0 |
| 20260504044003 | 53 | 134 | 8.0 | 8.0 | 0.10 | 0.30 | 0.20 | 81 | 1020.0 |
| 20260504042003 | 54 | 134 | 8.0 | 8.0 | 0.10 | 0.30 | 0.20 | 81 | 1019.0 |
| 20260504040005 | 55 | 134 | 8.0 | 8.0 | 0.10 | 0.30 | 0.20 | 81 | 1020.0 |
| 20260504035004 | 56 | 134 | 8.0 | 8.0 | 0.10 | 0.30 | 0.20 | 81 | 1020.0 |
| 20260504034002 | 57 | 134 | 8.0 | 8.0 | 0.10 | 0.30 | 0.20 | 81 | 1020.0 |
| 20260504031003 | 58 | 134 | 8.0 | 8.0 | 0.10 | 0.30 | 0.20 | 81 | 1021.0 |
| 20260504030003 | 58 | 134 | 8.0 | 8.0 | 0.10 | 0.30 | 0.20 | 81 | 1021.0 |
| 20260504025004 | 59 | 134 | 8.0 | 8.0 | 0.10 | 0.30 | 0.20 | 81 | 1021.0 |
| 20260504023003 | 60 | 134 | 8.0 | 9.0 | 0.10 | 0.30 | 0.20 | 81 | 1021.0 |
| 20260504021003 | 61 | 134 | 9.0 | 10.0 | 0.10 | 0.30 | 0.20 | 81 | 1021.0 |
| 20260504020006 | 62 | 134 | 10.0 | 11.0 | 0.10 | 0.30 | 0.20 | 81 | 1021.0 |
| 20260504015003 | 51 | 143 | 8.0 | 8.0 | 0.10 | 0.30 | 0.20 | 71 | 1021.0 |
| 20260504014004 | 51 | 143 | 8.0 | 8.0 | 0.10 | 0.30 | 0.20 | 71 | 1021.0 |
| 20260504012004 | 52 | 143 | 8.0 | 8.0 | 0.10 | 0.30 | 0.20 | 71 | 1020.0 |
| 20260504011004 | 53 | 143 | 8.0 | 8.0 | 0.10 | 0.30 | 0.20 | 71 | 1020.0 |
| 20260504010006 | 54 | 143 | 8.0 | 8.0 | 0.10 | 0.30 | 0.20 | 71 | 1021.0 |
| 20260504005008 | 54 | 143 | 8.0 | 8.0 | 0.10 | 0.30 | 0.20 | 71 | 1021.0 |
| 20260504004004 | 55 | 143 | 8.0 | 8.0 | 0.10 | 0.30 | 0.20 | 71 | 1021.0 |
| 20260504003004 | 56 | 143 | 8.0 | 8.0 | 0.10 | 0.30 | 0.20 | 71 | 1021.0 |
| 20260504000003 | 57 | 143 | 8.0 | 8.0 | 0.10 | 0.30 | 0.20 | 71 | 1021.0 |
| 20260503235004 | 57 | 143 | 8.0 | 8.0 | 0.10 | 0.30 | 0.20 | 71 | 1021.0 |
| 20260503234003 | 58 | 143 | 8.0 | 9.0 | 0.10 | 0.30 | 0.20 | 71 | 1021.0 |
| 20260503233003 | 59 | 143 | 9.0 | 10.0 | 0.10 | 0.30 | 0.20 | 71 | 1020.0 |
| 20260503232004 | 59 | 143 | 9.0 | 10.0 | 0.10 | 0.30 | 0.20 | 71 | 1020.0 |
| 20260503231003 | 60 | 143 | 10.0 | 11.0 | 0.10 | 0.30 | 0.20 | 71 | 1020.0 |
| 20260503230003 | 52 | 142 | 11.0 | 12.0 | 0.10 | 0.30 | 0.20 | 78 | 1021.0 |
| 20260503225005 | 52 | 142 | 11.0 | 12.0 | 0.10 | 0.30 | 0.20 | 78 | 1021.0 |
| 20260503224003 | 53 | 142 | 11.0 | 12.0 | 0.10 | 0.30 | 0.20 | 78 | 1021.0 |
| 20260503223004 | 54 | 142 | 11.0 | 12.0 | 0.10 | 0.30 | 0.20 | 78 | 1020.0 |
| 20260503222008 | 54 | 142 | 11.0 | 12.0 | 0.10 | 0.30 | 0.20 | 78 | 1020.0 |
| 20260503221008 | 55 | 142 | 11.0 | 12.0 | 0.10 | 0.30 | 0.20 | 78 | 1019.0 |
| 20260503220003 | 56 | 142 | 11.0 | 12.0 | 0.10 | 0.30 | 0.20 | 78 | 1020.0 |
| 20260503215007 | 56 | 142 | 11.0 | 12.0 | 0.10 | 0.30 | 0.20 | 78 | 1020.0 |
| 20260503214008 | 57 | 142 | 11.0 | 12.0 | 0.10 | 0.30 | 0.20 | 78 | 1019.0 |
| 20260503212003 | 58 | 142 | 11.0 | 12.0 | 0.10 | 0.30 | 0.20 | 78 | 1019.0 |
| 20260503211003 | 58 | 142 | 11.0 | 12.0 | 0.10 | 0.30 | 0.20 | 78 | 1019.0 |
| 20260503210005 | 59 | 142 | 11.0 | 12.0 | 0.10 | 0.30 | 0.20 | 78 | 1020.0 |
| 20260503205003 | 59 | 142 | 11.0 | 12.0 | 0.10 | 0.30 | 0.20 | 78 | 1020.0 |
| 20260503204002 | 54 | 145 | 11.0 | 12.0 | 0.10 | 0.30 | 0.20 | 79 | 1020.0 |
| 20260503203004 | 55 | 145 | 11.0 | 12.0 | 0.10 | 0.30 | 0.20 | 79 | 1020.0 |
| 20260503202003 | 56 | 145 | 11.0 | 12.0 | 0.10 | 0.30 | 0.20 | 79 | 1020.0 |
| 20260503201008 | 56 | 145 | 11.0 | 12.0 | 0.10 | 0.30 | 0.20 | 79 | 1020.0 |
| 20260503200003 | 57 | 145 | 11.0 | 13.0 | 0.10 | 0.30 | 0.20 | 79 | 1020.0 |
| 20260503195009 | 57 | 145 | 11.0 | 13.0 | 0.10 | 0.30 | 0.20 | 79 | 1020.0 |
| 20260503194003 | 58 | 145 | 12.0 | 14.0 | 0.10 | 0.30 | 0.20 | 79 | 1020.0 |
| 20260503193003 | 59 | 145 | 13.0 | 14.0 | 0.10 | 0.30 | 0.20 | 79 | 1020.0 |
| 20260503192004 | 59 | 145 | 13.0 | 14.0 | 0.10 | 0.30 | 0.20 | 79 | 1020.0 |
| 20260503191004 | 55 | 143 | 11.0 | 12.0 | 0.10 | 0.30 | 0.20 | 80 | 1020.0 |
| 20260503190005 | 55 | 143 | 11.0 | 12.0 | 0.10 | 0.30 | 0.20 | 80 | 1020.0 |
| 20260503185003 | 56 | 143 | 11.0 | 12.0 | 0.10 | 0.30 | 0.20 | 80 | 1020.0 |
| 20260503184003 | 57 | 143 | 11.0 | 12.0 | 0.10 | 0.30 | 0.20 | 80 | 1019.0 |
| 20260503183004 | 57 | 143 | 11.0 | 12.0 | 0.10 | 0.30 | 0.20 | 80 | 1019.0 |
| 20260503181003 | 58 | 143 | 11.0 | 13.0 | 0.10 | 0.30 | 0.20 | 80 | 1019.0 |
| 20260503180004 | 59 | 143 | 12.0 | 14.0 | 0.10 | 0.30 | 0.20 | 80 | 1020.0 |
| 20260503175004 | 59 | 143 | 12.0 | 14.0 | 0.10 | 0.30 | 0.20 | 80 | 1020.0 |
| 20260503174003 | 60 | 143 | 13.0 | 15.0 | 0.10 | 0.30 | 0.20 | 80 | 1020.0 |
| 20260503172003 | 56 | 139 | 15.0 | 16.0 | 0.10 | 0.30 | 0.20 | 74 | 1021.0 |
| 20260503171003 | 57 | 139 | 15.0 | 16.0 | 0.10 | 0.30 | 0.20 | 74 | 1021.0 |
| 20260503151004 | 64 | 139 | 15.0 | 16.0 | 0.10 | 0.30 | 0.20 | 74 | 1021.0 |